TimeCDT,TemperatureF,Dew PointF,Humidity,Sea Level PressureIn,VisibilityMPH,Wind Direction,Wind SpeedMPH,Gust SpeedMPH,PrecipitationIn,Events,Conditions,WindDirDegrees,DateUTC
12:15 AM,71.6,68.0,88,29.95,10.0,Calm,Calm,-,N/A,,Clear,0,2013-06-17 05:15:00
12:35 AM,71.6,68.0,88,29.95,10.0,Calm,Calm,-,N/A,,Clear,0,2013-06-17 05:35:00
12:55 AM,71.6,66.2,83,29.95,10.0,SW,3.5,-,N/A,,Clear,230,2013-06-17 05:55:00
1:15 AM,71.6,68.0,88,29.95,10.0,SW,5.8,-,N/A,,Clear,230,2013-06-17 06:15:00
1:35 AM,71.6,68.0,88,29.94,10.0,WSW,5.8,-,N/A,,Scattered Clouds,240,2013-06-17 06:35:00
1:55 AM,71.6,68.0,88,29.93,10.0,WSW,4.6,-,N/A,,Scattered Clouds,240,2013-06-17 06:55:00
2:15 AM,69.8,66.2,88,29.93,10.0,Calm,Calm,-,N/A,,Clear,0,2013-06-17 07:15:00
2:35 AM,69.8,68.0,94,29.93,10.0,Calm,Calm,-,N/A,,Clear,0,2013-06-17 07:35:00
2:55 AM,69.8,66.2,88,29.94,10.0,Calm,Calm,-,N/A,,Clear,0,2013-06-17 07:55:00
3:15 AM,69.8,66.2,88,29.94,10.0,West,3.5,-,N/A,,Clear,270,2013-06-17 08:15:00
3:35 AM,69.8,66.2,88,29.94,10.0,WSW,3.5,-,N/A,,Clear,240,2013-06-17 08:35:00
3:55 AM,66.2,64.4,94,29.94,7.0,Calm,Calm,-,N/A,,Clear,0,2013-06-17 08:55:00
4:15 AM,68.0,66.2,94,29.94,7.0,Calm,Calm,-,N/A,,Clear,0,2013-06-17 09:15:00
4:35 AM,66.2,66.2,100,29.94,7.0,SSW,4.6,-,N/A,,Clear,200,2013-06-17 09:35:00
4:55 AM,66.2,64.4,94,29.92,5.0,Calm,Calm,-,N/A,,Clear,0,2013-06-17 09:55:00
5:15 AM,64.4,64.4,100,29.93,3.0,Calm,Calm,-,N/A,,Clear,0,2013-06-17 10:15:00
5:35 AM,64.4,62.6,94,29.93,2.5,Calm,Calm,-,N/A,,Clear,0,2013-06-17 10:35:00
5:55 AM,64.4,62.6,94,29.94,2.5,Calm,Calm,-,N/A,,Clear,0,2013-06-17 10:55:00
6:15 AM,64.4,64.4,100,29.94,3.0,Calm,Calm,-,N/A,,Clear,0,2013-06-17 11:15:00
6:35 AM,66.2,66.2,100,29.95,4.0,Calm,Calm,-,N/A,,Clear,0,2013-06-17 11:35:00
6:55 AM,69.8,66.2,88,29.95,4.0,Calm,Calm,-,N/A,,Clear,0,2013-06-17 11:55:00
7:15 AM,69.8,68.0,94,29.96,5.0,WSW,3.5,-,N/A,,Clear,240,2013-06-17 12:15:00
7:35 AM,71.6,68.0,88,29.95,7.0,West,4.6,-,N/A,,Clear,280,2013-06-17 12:35:00
7:55 AM,73.4,68.0,83,29.96,10.0,Calm,Calm,-,N/A,,Clear,0,2013-06-17 12:55:00
8:15 AM,73.4,66.2,78,29.96,10.0,Calm,Calm,-,N/A,,Clear,0,2013-06-17 13:15:00
8:35 AM,75.2,66.2,73,29.97,10.0,Calm,Calm,-,N/A,,Clear,0,2013-06-17 13:35:00
8:55 AM,78.8,64.4,61,29.96,10.0,Calm,Calm,-,N/A,,Clear,0,2013-06-17 13:55:00
9:15 AM,78.8,64.4,61,29.96,10.0,NW,3.5,-,N/A,,Clear,310,2013-06-17 14:15:00
9:35 AM,80.6,62.6,54,29.96,10.0,WSW,3.5,-,N/A,,Clear,250,2013-06-17 14:35:00
9:55 AM,82.4,59.0,45,29.95,10.0,SW,3.5,-,N/A,,Clear,230,2013-06-17 14:55:00
10:15 AM,82.4,57.2,42,29.95,10.0,West,3.5,-,N/A,,Clear,270,2013-06-17 15:15:00
10:35 AM,84.2,53.6,35,29.95,10.0,Calm,Calm,-,N/A,,Clear,0,2013-06-17 15:35:00
10:55 AM,84.2,53.6,35,29.95,10.0,Calm,Calm,-,N/A,,Clear,0,2013-06-17 15:55:00
11:15 AM,86.0,53.6,33,29.95,10.0,SSW,3.5,-,N/A,,Clear,200,2013-06-17 16:15:00
11:35 AM,87.8,50.0,27,29.94,10.0,West,4.6,-,N/A,,Clear,260,2013-06-17 16:35:00
11:55 AM,87.8,51.8,29,29.94,10.0,SW,5.8,-,N/A,,Clear,230,2013-06-17 16:55:00
12:35 PM,87.8,50.0,27,29.94,10.0,West,5.8,-,N/A,,Clear,280,2013-06-17 17:35:00
12:55 PM,87.8,46.4,24,29.94,10.0,West,5.8,-,N/A,,Clear,280,2013-06-17 17:55:00
1:55 PM,87.8,50.0,27,29.94,10.0,West,4.6,-,N/A,,Clear,270,2013-06-17 18:55:00
2:15 PM,87.8,48.2,25,29.93,10.0,Calm,Calm,-,N/A,,Clear,0,2013-06-17 19:15:00
2:35 PM,89.6,48.2,24,29.92,10.0,Calm,Calm,-,N/A,,Clear,0,2013-06-17 19:35:00
2:55 PM,89.6,50.0,26,29.91,10.0,West,3.5,-,N/A,,Clear,260,2013-06-17 19:55:00
3:15 PM,89.6,48.2,24,29.90,10.0,West,4.6,-,N/A,,Clear,270,2013-06-17 20:15:00
3:35 PM,89.6,50.0,26,29.89,10.0,NW,3.5,-,N/A,,Scattered Clouds,320,2013-06-17 20:35:00
3:55 PM,89.6,48.2,24,29.88,10.0,West,4.6,-,N/A,,Clear,260,2013-06-17 20:55:00
4:15 PM,89.6,48.2,24,29.88,10.0,West,4.6,-,N/A,,Clear,270,2013-06-17 21:15:00
4:35 PM,89.6,48.2,24,29.88,10.0,West,9.2,-,N/A,,Clear,280,2013-06-17 21:35:00
4:55 PM,89.6,48.2,24,29.88,10.0,WNW,5.8,-,N/A,,Clear,290,2013-06-17 21:55:00
5:15 PM,89.6,48.2,24,29.89,10.0,West,4.6,-,N/A,,Clear,260,2013-06-17 22:15:00
5:35 PM,89.6,50.0,26,29.88,10.0,West,3.5,-,N/A,,Mostly Cloudy,270,2013-06-17 22:35:00
5:55 PM,87.8,51.8,29,29.89,10.0,West,8.1,-,N/A,,Scattered Clouds,260,2013-06-17 22:55:00
6:15 PM,87.8,51.8,29,29.89,10.0,West,6.9,-,N/A,,Clear,260,2013-06-17 23:15:00
6:35 PM,87.8,51.8,29,29.89,10.0,West,5.8,-,N/A,,Clear,270,2013-06-17 23:35:00
6:55 PM,87.8,53.6,31,29.89,10.0,West,8.1,-,N/A,,Clear,270,2013-06-17 23:55:00
7:15 PM,86.0,53.6,33,29.89,10.0,West,6.9,-,N/A,,Clear,280,2013-06-18 00:15:00
7:35 PM,84.2,55.4,37,29.89,10.0,West,6.9,-,N/A,,Clear,270,2013-06-18 00:35:00
7:55 PM,82.4,57.2,42,29.89,10.0,West,4.6,-,N/A,,Clear,270,2013-06-18 00:55:00
8:15 PM,82.4,57.2,42,29.89,10.0,WSW,4.6,-,N/A,,Clear,250,2013-06-18 01:15:00
8:35 PM,80.6,57.2,45,29.88,10.0,SW,5.8,-,N/A,,Clear,230,2013-06-18 01:35:00
8:55 PM,80.6,57.2,45,29.88,10.0,West,6.9,-,N/A,,Clear,260,2013-06-18 01:55:00
9:15 PM,78.8,57.2,47,29.89,10.0,WSW,4.6,-,N/A,,Clear,250,2013-06-18 02:15:00
9:35 PM,78.8,59.0,51,29.89,10.0,West,3.5,-,N/A,,Clear,260,2013-06-18 02:35:00
9:55 PM,78.8,60.8,54,29.90,10.0,Calm,Calm,-,N/A,,Clear,0,2013-06-18 02:55:00
10:15 PM,78.8,60.8,54,29.90,10.0,Calm,Calm,-,N/A,,Clear,0,2013-06-18 03:15:00
10:35 PM,78.8,62.6,57,29.90,10.0,WSW,3.5,-,N/A,,Clear,250,2013-06-18 03:35:00
10:55 PM,75.2,62.6,65,29.90,10.0,Calm,Calm,-,N/A,,Clear,0,2013-06-18 03:55:00
11:15 PM,75.2,62.6,65,29.90,10.0,Calm,Calm,-,N/A,,Clear,0,2013-06-18 04:15:00
11:35 PM,75.2,62.6,65,29.91,10.0,North,4.6,10.4,N/A,,Clear,10,2013-06-18 04:35:00
11:55 PM,75.2,60.8,61,29.90,10.0,Calm,Calm,-,N/A,,Clear,0,2013-06-18 04:55:00